EW5239 Weather Reports


time (UTC)temp
C
wind
direction
speed
KPH
gust
KPH
rain 1hr
cm
rain 24hr
cm
rain mn
cm
humidity
%
barometer
mb
20260505200504 17 347 4.8 8.0 0.00 0.00 0.00 64 1004.2
20260505200231 17 28 6.4 8.0 0.00 0.00 0.00 66 1005.9
20260505200004 17 349 6.4 8.0 0.00 0.00 0.00 64 1004.2
20260505195724 17 36 4.8 8.0 0.00 0.00 0.00 65 1005.8
20260505195504 17 349 6.4 8.0 0.00 0.00 0.00 63 1004.2
20260505195225 17 19 3.2 6.4 0.00 0.00 0.00 64 1005.8
20260505195005 17 313 4.8 6.4 0.00 0.00 0.00 62 1004.3
20260505194725 17 195 3.2 6.4 0.00 0.00 0.00 62 1005.9
20260505194504 17 215 3.2 6.4 0.00 0.00 0.00 61 1004.3
20260505194224 17 187 3.2 6.4 0.00 0.00 0.00 62 1005.8
20260505194004 17 228 4.8 6.4 0.00 0.00 0.00 59 1004.3
20260505193724 17 155 3.2 6.4 0.00 0.00 0.00 60 1005.7
20260505193225 17 346 4.8 12.9 0.00 0.00 0.00 57 1005.8
20260505193004 17 350 3.2 14.5 0.00 0.00 0.00 56 1004.2
20260505192504 17 321 6.4 14.5 0.00 0.00 0.00 53 1004.1
20260505192225 16 286 4.8 11.3 0.00 0.00 0.00 55 1005.7
20260505192004 17 284 4.8 9.7 0.00 0.00 0.00 52 1004.1
20260505191225 16 296 1.6 4.8 0.00 0.00 0.00 52 1005.7
20260505191004 17 270 0.0 4.8 0.00 0.00 0.00 49 1004.0
20260505190505 18 0 0.0 0.0 0.00 0.00 0.00 47 1003.9
20260505190231 17 270 0.0 1.6 0.00 0.00 0.00 47 1005.4
20260505190004 18 290 1.6 3.2 0.00 0.00 0.00 46 1003.7
20260505185724 18 279 0.0 3.2 0.00 0.00 0.00 46 1005.5
20260505185505 19 269 3.2 3.2 0.00 0.00 0.00 44 1003.8
20260505185225 19 270 1.6 3.2 0.00 0.00 0.00 44 1005.3
20260505184725 20 200 3.2 6.4 0.00 0.00 0.00 41 1005.3
20260505184004 20 182 4.8 6.4 0.00 0.00 0.00 41 1003.6
20260505183505 20 168 4.8 6.4 0.00 0.00 0.00 41 1003.6
20260505183225 20 158 4.8 6.4 0.00 0.00 0.00 40 1005.1
20260505183004 20 162 4.8 6.4 0.00 0.00 0.00 42 1003.6
20260505182725 20 166 3.2 6.4 0.00 0.00 0.00 41 1005.3
20260505182504 20 171 3.2 6.4 0.00 0.00 0.00 41 1003.7
20260505182005 21 183 3.2 3.2 0.00 0.00 0.00 39 1003.6
20260505181725 21 174 1.6 3.2 0.00 0.00 0.00 39 1005.3
20260505181224 21 166 0.0 1.6 0.00 0.00 0.00 36 1005.1
20260505181005 21 181 0.0 3.2 0.00 0.00 0.00 36 1003.7
20260505180725 21 0 0.0 0.0 0.00 0.00 0.00 35 1005.3
20260505180504 22 181 0.0 1.6 0.00 0.00 0.00 33 1003.6
20260505180004 22 222 0.0 1.6 0.00 0.00 0.00 33 1003.6
20260505175725 22 181 0.0 1.6 0.00 0.00 0.00 32 1005.3
20260505175505 22 257 1.6 3.2 0.00 0.00 0.00 33 1003.4
20260505175224 22 270 0.0 3.2 0.00 0.00 0.00 32 1005.2
20260505175004 23 274 1.6 3.2 0.00 0.00 0.00 34 1003.5
20260505174724 22 256 1.6 3.2 0.00 0.00 0.00 32 1005.1
20260505174504 23 268 3.2 3.2 0.00 0.00 0.00 33 1003.4
20260505174225 22 262 1.6 3.2 0.00 0.00 0.00 32 1005.0
20260505174004 23 265 3.2 3.2 0.00 0.00 0.00 33 1003.4
20260505173725 23 266 3.2 3.2 0.00 0.00 0.00 32 1005.2
20260505173504 23 264 3.2 6.4 0.00 0.00 0.00 32 1003.4
20260505173224 23 280 4.8 6.4 0.00 0.00 0.00 30 1004.9
20260505173004 23 259 4.8 6.4 0.00 0.00 0.00 30 1003.4
20260505172725 23 273 4.8 8.0 0.00 0.00 0.00 30 1005.1
20260505172224 23 267 4.8 8.0 0.00 0.00 0.00 29 1005.2
20260505172004 25 266 4.8 6.4 0.00 0.00 0.00 30 1003.5
20260505171505 25 253 4.8 8.0 0.00 0.00 0.00 28 1003.4
20260505171225 24 265 6.4 9.7 0.00 0.00 0.00 28 1005.2
20260505171004 25 249 8.0 12.9 0.00 0.00 0.00 28 1003.5
20260505170724 24 268 9.7 14.5 0.00 0.00 0.00 27 1005.1
20260505170504 25 264 9.7 12.9 0.00 0.00 0.00 27 1003.6
20260505170004 25 270 9.7 12.9 0.00 0.00 0.00 27 1003.4
20260505165725 25 274 11.3 14.5 0.00 0.00 0.00 25 1005.1
20260505165504 25 259 11.3 12.9 0.00 0.00 0.00 26 1003.5
20260505165224 25 291 12.9 17.7 0.00 0.00 0.00 25 1005.2
20260505165004 26 282 12.9 17.7 0.00 0.00 0.00 26 1003.5
20260505164724 25 292 12.9 17.7 0.00 0.00 0.00 24 1005.1
20260505164504 26 293 12.9 17.7 0.00 0.00 0.00 24 1003.6
20260505164225 26 297 11.3 16.1 0.00 0.00 0.00 24 1005.4
20260505164004 26 276 12.9 16.1 0.00 0.00 0.00 24 1003.6
20260505163725 26 266 12.9 16.1 0.00 0.00 0.00 23 1005.0
20260505163504 26 270 12.9 16.1 0.00 0.00 0.00 23 1003.6
20260505163004 26 248 12.9 16.1 0.00 0.00 0.00 22 1003.5
20260505162504 26 235 12.9 16.1 0.00 0.00 0.00 22 1003.7
20260505162224 26 268 12.9 17.7 0.00 0.00 0.00 17 1005.1
20260505162004 26 243 14.5 17.7 0.00 0.00 0.00 21 1003.6
20260505161725 26 296 14.5 20.9 0.00 0.00 0.00 17 1005.3
20260505161504 26 224 16.1 19.3 0.00 0.00 0.00 21 1003.7
20260505160504 26 198 16.1 19.3 0.00 0.00 0.00 20 1003.6
20260505153224 26 218 14.5 20.9 0.00 0.00 0.00 15 1005.6
20260505153004 27 218 16.1 22.5 0.00 0.00 0.00 18 1003.8
20260505152725 26 214 17.7 20.9 0.00 0.00 0.00 15 1005.3
20260505152225 27 215 16.1 20.9 0.00 0.00 0.00 14 1005.6
20260505152004 27 182 16.1 24.1 0.00 0.00 0.00 18 1003.8
20260505151725 27 225 16.1 19.3 0.00 0.00 0.00 15 1005.6
20260505151504 27 189 16.1 22.5 0.00 0.00 0.00 20 1003.9
20260505151224 27 225 16.1 24.1 0.00 0.00 0.00 15 1005.3
20260505150725 27 229 14.5 24.1 0.00 0.00 0.00 15 1005.9
20260505150504 27 231 16.1 24.1 0.00 0.00 0.00 20 1003.9
20260505150231 27 238 16.1 19.3 0.00 0.00 0.00 16 1005.6
20260505140230 27 215 16.1 24.1 0.00 0.00 0.00 18 1006.0
20260505130233 27 199 14.5 22.5 0.00 0.00 0.00 21 1006.8
20260505125004 27 193 17.7 29.0 0.00 0.00 0.00 21 1005.0
20260505124725 27 171 19.3 29.0 0.00 0.00 0.00 19 1006.6
20260505124504 27 174 17.7 29.0 0.00 0.00 0.00 21 1005.1
20260505124224 27 181 17.7 33.8 0.00 0.00 0.00 18 1006.6
20260505124004 27 177 20.9 33.8 0.00 0.00 0.00 21 1005.1
20260505123724 27 215 20.9 33.8 0.00 0.00 0.00 18 1006.9
20260505123504 27 198 22.5 33.8 0.00 0.00 0.00 21 1005.3
20260505123225 27 216 19.3 27.4 0.00 0.00 0.00 18 1006.9
20260505123004 27 207 19.3 25.7 0.00 0.00 0.00 21 1005.3
20260505122725 27 184 19.3 27.4 0.00 0.00 0.00 18 1006.8
20260505122504 27 184 17.7 25.7 0.00 0.00 0.00 21 1005.3
20260505122225 27 173 19.3 27.4 0.00 0.00 0.00 17 1006.8
20260505122004 27 195 17.7 24.1 0.00 0.00 0.00 21 1005.4
20260505121724 27 202 19.3 30.6 0.00 0.00 0.00 18 1006.9
20260505121004 27 192 16.1 25.7 0.00 0.00 0.00 21 1005.5
20260505120725 27 184 12.9 14.5 0.00 0.00 0.00 21 1006.9
20260505120504 26 185 14.5 19.3 0.00 0.00 0.00 23 1005.5
20260505120231 27 184 12.9 17.7 0.00 0.00 0.00 18 1006.9
20260505115225 26 205 12.9 17.7 0.00 0.00 0.00 22 1006.9
20260505115004 26 194 14.5 19.3 0.00 0.00 0.00 22 1005.6
20260505114504 26 201 12.9 19.3 0.00 0.00 0.00 23 1005.5
20260505114224 26 186 12.9 22.5 0.00 0.00 0.00 22 1007.1
20260505114004 26 195 14.5 20.9 0.00 0.00 0.00 23 1005.7
20260505113724 26 196 16.1 22.5 0.00 0.00 0.00 19 1007.1
20260505113504 26 186 14.5 20.9 0.00 0.00 0.00 23 1005.8
20260505112724 26 189 16.1 22.5 0.00 0.00 0.00 22 1007.2
20260505112504 26 194 17.7 24.1 0.00 0.00 0.00 23 1005.7
20260505112224 26 182 16.1 22.5 0.00 0.00 0.00 20 1007.4
20260505112004 26 196 16.1 24.1 0.00 0.00 0.00 24 1005.9
20260505111725 26 188 14.5 22.5 0.00 0.00 0.00 23 1007.5
20260505111504 26 177 12.9 16.1 0.00 0.00 0.00 28 1006.0
20260505111226 26 189 12.9 17.7 0.00 0.00 0.00 24 1007.1
20260505111003 26 197 12.9 17.7 0.00 0.00 0.00 28 1005.9
20260505110725 26 203 12.9 17.7 0.00 0.00 0.00 24 1007.6
20260505110504 25 205 14.5 17.7 0.00 0.00 0.00 27 1005.9
20260505110230 26 222 11.3 17.7 0.00 0.00 0.00 24 1007.5
20260505101724 25 223 12.9 17.7 0.00 0.00 0.00 29 1008.0
20260505101504 25 221 11.3 19.3 0.00 0.00 0.00 33 1006.6
20260505101224 25 222 14.5 14.5 0.00 0.00 0.00 29 1008.1
20260505101004 25 220 9.7 9.7 0.00 0.00 0.00 32 1006.7
20260505100725 25 225 14.5 14.5 0.00 0.00 0.00 29 1008.1
20260505100504 25 237 9.7 14.5 0.00 0.00 0.00 33 1006.7
20260505100005 25 256 11.3 16.1 0.00 0.00 0.00 33 1006.8
20260505095504 25 263 11.3 16.1 0.00 0.00 0.00 33 1007.0
20260505095225 25 266 11.3 16.1 0.00 0.00 0.00 28 1008.4
20260505094725 25 243 11.3 17.7 0.00 0.00 0.00 29 1008.4
20260505094504 25 239 11.3 17.7 0.00 0.00 0.00 33 1006.9
20260505094225 25 228 11.3 17.7 0.00 0.00 0.00 29 1008.5
20260505094004 25 233 11.3 17.7 0.00 0.00 0.00 33 1007.1
20260505093725 25 212 12.9 17.7 0.00 0.00 0.00 28 1008.7
20260505093225 25 218 11.3 16.1 0.00 0.00 0.00 29 1008.3
20260505093004 25 208 9.7 16.1 0.00 0.00 0.00 33 1007.2
20260505092725 25 237 11.3 12.9 0.00 0.00 0.00 31 1008.8
20260505092504 25 241 9.7 12.9 0.00 0.00 0.00 34 1007.3
20260505092225 25 254 9.7 12.9 0.00 0.00 0.00 31 1008.8
20260505092004 25 253 9.7 12.9 0.00 0.00 0.00 34 1007.2
20260505091725 25 256 9.7 14.5 0.00 0.00 0.00 31 1008.7
20260505091504 25 259 9.7 12.9 0.00 0.00 0.00 35 1007.3
20260505091225 25 246 9.7 14.5 0.00 0.00 0.00 31 1008.8
20260505091004 24 242 9.7 12.9 0.00 0.00 0.00 35 1007.5
20260505090725 24 226 9.7 14.5 0.00 0.00 0.00 34 1008.8
20260505090504 24 220 11.3 17.7 0.00 0.00 0.00 35 1007.3
20260505090231 24 244 11.3 16.1 0.00 0.00 0.00 31 1008.9
20260505090005 24 234 12.9 17.7 0.00 0.00 0.00 35 1007.4
20260505085725 24 243 12.9 17.7 0.00 0.00 0.00 34 1009.0
20260505085504 24 246 12.9 17.7 0.00 0.00 0.00 35 1007.4
20260505085225 24 217 11.3 17.7 0.00 0.00 0.00 33 1008.9
20260505085004 23 239 11.3 16.1 0.00 0.00 0.00 35 1007.4
20260505084724 23 261 11.3 17.7 0.00 0.00 0.00 34 1009.0
20260505084504 23 237 11.3 17.7 0.00 0.00 0.00 38 1007.4
20260505084004 23 244 11.3 17.7 0.00 0.00 0.00 38 1007.4
20260505083725 23 230 9.7 16.1 0.00 0.00 0.00 36 1009.1
20260505083504 23 256 9.7 14.5 0.00 0.00 0.00 39 1007.6
20260505083224 23 227 9.7 16.1 0.00 0.00 0.00 37 1009.2
20260505083005 23 225 9.7 16.1 0.00 0.00 0.00 39 1007.6
20260505082725 23 216 9.7 16.1 0.00 0.00 0.00 38 1009.2
20260505082225 22 223 11.3 17.7 0.00 0.00 0.00 37 1009.2
20260505081724 22 230 12.9 17.7 0.00 0.00 0.00 35 1009.4
20260505081224 22 229 9.7 12.9 0.00 0.00 0.00 35 1009.3
20260505081004 22 238 11.3 12.9 0.00 0.00 0.00 37 1007.7
20260505080725 22 226 8.0 11.3 0.00 0.00 0.00 35 1009.4
20260505080230 22 214 8.0 9.7 0.00 0.00 0.00 36 1009.4
20260505080004 22 222 6.4 11.3 0.00 0.00 0.00 39 1007.9
20260505075725 22 219 6.4 9.7 0.00 0.00 0.00 36 1009.5
20260505075504 22 218 8.0 12.9 0.00 0.00 0.00 38 1007.8
20260505075224 22 239 8.0 11.3 0.00 0.00 0.00 36 1009.5
20260505075004 21 220 9.7 12.9 0.00 0.00 0.00 39 1007.7
20260505074725 21 244 8.0 11.3 0.00 0.00 0.00 37 1009.3
20260505074225 21 263 9.7 12.9 0.00 0.00 0.00 36 1009.6
20260505074003 21 265 9.7 12.9 0.00 0.00 0.00 40 1007.9
20260505073725 21 244 9.7 12.9 0.00 0.00 0.00 39 1009.6
20260505073504 21 240 8.0 12.9 0.00 0.00 0.00 42 1008.0
20260505073225 21 218 8.0 12.9 0.00 0.00 0.00 38 1009.6
20260505073004 21 247 8.0 12.9 0.00 0.00 0.00 41 1008.0
20260505072725 20 240 8.0 9.7 0.00 0.00 0.00 42 1009.6
20260505072503 20 254 8.0 9.7 0.00 0.00 0.00 44 1008.1
20260505072225 20 231 8.0 11.3 0.00 0.00 0.00 43 1009.5
20260505072004 20 240 8.0 9.7 0.00 0.00 0.00 44 1008.3
20260505071725 20 221 6.4 11.3 0.00 0.00 0.00 43 1009.7
20260505071504 20 220 6.4 9.7 0.00 0.00 0.00 44 1008.0
20260505071225 20 226 6.4 8.0 0.00 0.00 0.00 43 1009.6
20260505071003 20 216 8.0 11.3 0.00 0.00 0.00 45 1008.0
20260505070724 20 205 8.0 12.9 0.00 0.00 0.00 44 1009.4
20260505070231 19 203 8.0 12.9 0.00 0.00 0.00 43 1009.6
20260505070004 20 207 9.7 12.9 0.00 0.00 0.00 45 1008.1
20260505065725 19 198 9.7 12.9 0.00 0.00 0.00 43 1009.6
20260505065503 20 198 9.7 12.9 0.00 0.00 0.00 44 1008.2
20260505065225 19 194 9.7 12.9 0.00 0.00 0.00 42 1009.9
20260505065004 19 211 9.7 12.9 0.00 0.00 0.00 44 1008.1
20260505064725 19 207 9.7 12.9 0.00 0.00 0.00 41 1009.8
20260505064504 19 239 9.7 12.9 0.00 0.00 0.00 44 1008.1
20260505064224 18 225 8.0 12.9 0.00 0.00 0.00 41 1009.8
20260505064004 19 242 6.4 9.7 0.00 0.00 0.00 45 1008.2
20260505063724 18 223 6.4 9.7 0.00 0.00 0.00 45 1009.8
20260505063504 19 217 6.4 11.3 0.00 0.00 0.00 45 1008.3
20260505062724 18 205 6.4 9.7 0.00 0.00 0.00 45 1009.9
20260505062504 18 213 6.4 9.7 0.00 0.00 0.00 46 1008.3
20260505062225 17 205 4.8 9.7 0.00 0.00 0.00 46 1009.8
20260505062004 18 207 6.4 9.7 0.00 0.00 0.00 48 1008.2
20260505061725 17 211 4.8 8.0 0.00 0.00 0.00 52 1009.7
20260505061504 18 200 4.8 8.0 0.00 0.00 0.00 51 1008.4
20260505061004 18 130 4.8 8.0 0.00 0.00 0.00 52 1008.5
20260505060724 17 184 3.2 4.8 0.00 0.00 0.00 57 1009.9
20260505060231 16 153 3.2 3.2 0.00 0.00 0.00 61 1009.9
20260505060004 18 146 3.2 3.2 0.00 0.00 0.00 58 1008.4
20260505055725 16 139 3.2 4.8 0.00 0.00 0.00 62 1010.1
20260505055504 18 150 3.2 3.2 0.00 0.00 0.00 61 1008.3
20260505055225 16 146 1.6 4.8 0.00 0.00 0.00 63 1010.1
20260505055003 17 153 3.2 3.2 0.00 0.00 0.00 64 1008.3
20260505054725 16 152 1.6 3.2 0.00 0.00 0.00 65 1010.0
20260505054504 17 171 3.2 4.8 0.00 0.00 0.00 65 1008.4
20260505054224 15 169 3.2 4.8 0.00 0.00 0.00 66 1010.0
20260505053724 15 155 3.2 4.8 0.00 0.00 0.00 68 1010.2
20260505053504 16 138 4.8 4.8 0.00 0.00 0.00 72 1008.5
20260505053225 15 118 3.2 4.8 0.00 0.00 0.00 73 1010.1
20260505053004 15 132 4.8 4.8 0.00 0.00 0.00 75 1008.5
20260505052725 15 120 3.2 4.8 0.00 0.00 0.00 73 1010.2
20260505052504 15 134 3.2 6.4 0.00 0.00 0.00 77 1008.4
20260505052225 15 101 3.2 4.8 0.00 0.00 0.00 74 1010.0
20260505052004 14 96 4.8 6.4 0.00 0.00 0.00 81 1008.4
20260505051725 15 70 3.2 6.4 0.00 0.00 0.00 76 1010.0
20260505051504 13 90 4.8 6.4 0.00 0.00 0.00 82 1008.4
20260505051004 13 108 4.8 6.4 0.00 0.00 0.00 85 1008.6
20260505050725 14 108 4.8 6.4 0.00 0.00 0.00 82 1010.1
20260505050504 12 115 4.8 6.4 0.00 0.00 0.00 85 1008.6
20260505050230 13 117 4.8 6.4 0.00 0.00 0.00 85 1010.0
20260505041504 10 0 0.0 0.0 0.00 0.00 0.00 88 1008.5
20260505041124 10 90 0.0 1.6 0.00 0.00 0.00 92 1010.2
20260505041004 10 0 0.0 0.0 0.00 0.00 0.00 88 1008.3
20260505040625 10 86 0.0 1.6 0.00 0.00 0.00 92 1010.0
20260505040504 10 0 0.0 0.0 0.00 0.00 0.00 88 1008.4
20260505040130 10 117 0.0 1.6 0.00 0.00 0.00 93 1010.2
20260505040005 10 0 0.0 0.0 0.00 0.00 0.00 88 1008.3
20260505035624 9 130 0.0 1.6 0.00 0.00 0.00 93 1010.3
20260505035504 10 90 0.0 1.6 0.00 0.00 0.00 88 1008.4
20260505035124 9 130 0.0 3.2 0.00 0.00 0.00 92 1010.1
20260505035004 10 90 0.0 1.6 0.00 0.00 0.00 87 1008.3
20260505034624 9 120 1.6 3.2 0.00 0.00 0.00 91 1010.5
20260505034003 10 128 1.6 4.8 0.00 0.00 0.00 88 1008.5
20260505033624 9 83 1.6 3.2 0.00 0.00 0.00 90 1010.1
20260505033504 10 135 0.0 3.2 0.00 0.00 0.00 86 1008.5
20260505033125 8 90 0.0 1.6 0.00 0.00 0.00 89 1010.3
20260505032624 8 0 0.0 0.0 0.00 0.00 0.00 90 1010.3
20260505032503 10 0 0.0 0.0 0.00 0.00 0.00 86 1008.4
20260505032124 8 0 0.0 0.0 0.00 0.00 0.00 88 1010.2
20260505032004 10 0 0.0 0.0 0.00 0.00 0.00 86 1008.4
20260505031624 9 0 0.0 0.0 0.00 0.00 0.00 88 1010.3
20260505031504 10 0 0.0 0.0 0.00 0.00 0.00 85 1008.4
20260505031125 9 0 0.0 0.0 0.00 0.00 0.00 88 1010.3
20260505031004 10 0 0.0 0.0 0.00 0.00 0.00 85 1008.4
20260505030624 9 135 0.0 1.6 0.00 0.00 0.00 87 1010.4
20260505030130 9 135 0.0 1.6 0.00 0.00 0.00 87 1010.3
20260505025624 10 135 0.0 1.6 0.00 0.00 0.00 87 1010.4
20260505025124 10 135 0.0 1.6 0.00 0.00 0.00 86 1010.5
20260505025004 10 0 0.0 0.0 0.00 0.00 0.00 85 1008.5
20260505024624 10 90 0.0 1.6 0.00 0.00 0.00 87 1010.3
20260505024124 10 108 0.0 1.6 0.00 0.00 0.00 87 1010.2
20260505024004 10 123 0.0 3.2 0.00 0.00 0.00 85 1008.7
20260505023624 10 104 1.6 1.6 0.00 0.00 0.00 87 1010.4
20260505023504 10 104 1.6 3.2 0.00 0.00 0.00 85 1008.7
20260505023124 10 91 1.6 3.2 0.00 0.00 0.00 86 1010.5
20260505023004 10 96 1.6 3.2 0.00 0.00 0.00 84 1008.6
20260505022625 10 90 0.0 3.2 0.00 0.00 0.00 86 1010.7
20260505022504 10 0 0.0 0.0 0.00 0.00 0.00 84 1008.7
20260505022004 10 0 0.0 0.0 0.00 0.00 0.00 84 1008.7
20260505021624 10 0 0.0 0.0 0.00 0.00 0.00 85 1010.3
20260505021504 10 0 0.0 0.0 0.00 0.00 0.00 84 1008.8
20260505021004 10 0 0.0 0.0 0.00 0.00 0.00 83 1008.8
20260505020624 10 0 0.0 0.0 0.00 0.00 0.00 84 1010.4
20260505020130 10 0 0.0 0.0 0.00 0.00 0.00 84 1010.6
20260505020004 11 0 0.0 0.0 0.00 0.00 0.00 83 1008.8
20260505015624 10 0 0.0 0.0 0.00 0.00 0.00 83 1010.6
20260505015504 11 0 0.0 0.0 0.00 0.00 0.00 82 1009.0
20260505015125 10 55 0.0 3.2 0.00 0.00 0.00 83 1010.7
20260505015004 11 0 0.0 0.0 0.00 0.00 0.00 82 1008.9
20260505014625 11 52 0.0 3.2 0.00 0.00 0.00 83 1010.7
20260505014504 11 0 0.0 0.0 0.00 0.00 0.00 82 1008.9
20260505014124 11 45 0.0 1.6 0.00 0.00 0.00 82 1010.6
20260505014004 11 0 0.0 0.0 0.00 0.00 0.00 82 1008.9
20260505013624 11 135 0.0 1.6 0.00 0.00 0.00 82 1010.5
20260505013504 11 135 0.0 1.6 0.00 0.00 0.00 82 1008.9
20260505013003 11 138 1.6 3.2 0.00 0.00 0.00 82 1008.9
20260505012624 11 142 1.6 3.2 0.00 0.00 0.00 83 1010.5
20260505012504 11 144 1.6 3.2 0.00 0.00 0.00 82 1008.8
20260505012124 11 150 0.0 1.6 0.00 0.00 0.00 83 1010.6
20260505012004 11 151 1.6 3.2 0.00 0.00 0.00 82 1008.9
20260505011624 11 157 0.0 3.2 0.00 0.00 0.00 83 1010.7
20260505011124 11 136 0.0 3.2 0.00 0.00 0.00 83 1010.7
20260505010625 11 102 0.0 1.6 0.00 0.00 0.00 83 1010.8
20260505010505 11 135 1.6 3.2 0.00 0.00 0.00 82 1009.1
20260505010005 11 162 1.6 3.2 0.00 0.00 0.00 82 1009.0
20260505005624 11 165 1.6 6.4 0.00 0.00 0.00 83 1010.7
20260505005504 11 165 1.6 6.4 0.00 0.00 0.00 82 1009.0
20260505004624 11 152 1.6 6.4 0.00 0.00 0.00 82 1011.0
20260505004504 11 120 1.6 3.2 0.00 0.00 0.00 81 1009.2
20260505004004 11 101 1.6 3.2 0.00 0.00 0.00 80 1009.1
20260505003624 11 89 1.6 3.2 0.00 0.00 0.00 82 1010.8
20260505003504 11 66 1.6 3.2 0.00 0.00 0.00 80 1009.1
20260505003124 11 80 1.6 3.2 0.00 0.00 0.00 82 1010.9
20260505003003 11 73 1.6 3.2 0.00 0.00 0.00 80 1009.1
20260505002124 11 181 0.0 1.6 0.00 0.00 0.00 82 1011.0
20260505001625 11 167 0.0 1.6 0.00 0.00 0.00 82 1011.0
20260505001503 12 174 1.6 3.2 0.00 0.00 0.00 79 1009.5
20260505001125 11 160 0.0 1.6 0.00 0.00 0.00 82 1011.0
20260505001004 12 174 1.6 3.2 0.00 0.00 0.00 79 1009.3
20260505000624 11 135 0.0 3.2 0.00 0.00 0.00 81 1011.3
20260505000504 12 170 1.6 3.2 0.00 0.00 0.00 79 1009.4
20260505000130 11 135 0.0 3.2 0.00 0.00 0.00 81 1011.1
20260505000004 12 147 1.6 3.2 0.00 0.00 0.00 79 1009.4
20260504235624 11 135 0.0 1.6 0.00 0.00 0.00 81 1011.2
20260504235504 12 135 0.0 1.6 0.00 0.00 0.00 78 1009.4
20260504235124 11 181 0.0 1.6 0.00 0.00 0.00 81 1011.2
20260504234625 11 173 1.6 3.2 0.00 0.00 0.00 81 1011.1
20260504234503 12 181 1.6 3.2 0.00 0.00 0.00 78 1009.5
20260504234124 11 175 1.6 3.2 0.00 0.00 0.00 80 1011.3
20260504234004 12 181 1.6 3.2 0.00 0.00 0.00 77 1009.5
20260504233625 11 177 0.0 1.6 0.00 0.00 0.00 79 1011.3
20260504233504 12 182 1.6 3.2 0.00 0.00 0.00 77 1009.6
20260504233124 11 166 0.0 1.6 0.00 0.00 0.00 78 1011.4
20260504233003 12 196 1.6 3.2 0.00 0.00 0.00 76 1009.5
20260504232625 11 0 0.0 0.0 0.00 0.00 0.00 77 1011.0
20260504232504 12 198 1.6 3.2 0.00 0.00 0.00 75 1009.5
20260504232124 11 0 0.0 0.0 0.00 0.00 0.00 76 1011.1
20260504231624 11 0 0.0 0.0 0.00 0.00 0.00 75 1011.4
20260504231504 12 0 0.0 0.0 0.00 0.00 0.00 74 1009.6
20260504231124 12 0 0.0 0.0 0.00 0.00 0.00 74 1011.3
20260504231004 12 1 0.0 1.6 0.00 0.00 0.00 74 1009.8
20260504230625 12 0 0.0 0.0 0.00 0.00 0.00 75 1011.4
20260504230130 12 0 0.0 0.0 0.00 0.00 0.00 75 1011.4
20260504230004 13 354 1.6 3.2 0.00 0.00 0.00 73 1009.8
20260504225625 12 0 0.0 0.0 0.00 0.00 0.00 74 1011.6
20260504225504 13 0 0.0 0.0 0.00 0.00 0.00 72 1009.7
20260504225124 12 0 0.0 0.0 0.00 0.00 0.00 73 1011.4
20260504225004 13 181 0.0 1.6 0.00 0.00 0.00 72 1009.9
20260504224624 12 0 0.0 0.0 0.00 0.00 0.00 73 1011.5
20260504224125 13 0 0.0 0.0 0.00 0.00 0.00 72 1011.4
20260504224004 13 270 0.0 1.6 0.00 0.00 0.00 70 1009.8
20260504223624 13 0 0.0 0.0 0.00 0.00 0.00 71 1011.6
20260504223504 13 255 1.6 3.2 0.00 0.00 0.00 70 1010.0
20260504223124 13 218 0.0 3.2 0.00 0.00 0.00 71 1011.5
20260504223003 13 233 1.6 3.2 0.00 0.00 0.00 69 1010.0
20260504222624 13 182 0.0 3.2 0.00 0.00 0.00 71 1011.8
20260504222504 14 225 0.0 3.2 0.00 0.00 0.00 69 1010.1
20260504222124 13 135 0.0 1.6 0.00 0.00 0.00 71 1011.7
20260504222004 14 0 0.0 0.0 0.00 0.00 0.00 69 1010.0
20260504221625 13 154 0.0 1.6 0.00 0.00 0.00 70 1011.6
20260504221125 13 209 0.0 1.6 0.00 0.00 0.00 69 1011.7
20260504221004 14 225 1.6 3.2 0.00 0.00 0.00 67 1009.9
20260504220625 13 225 0.0 1.6 0.00 0.00 0.00 68 1011.6
20260504220504 15 225 1.6 3.2 0.00 0.00 0.00 67 1009.9
20260504220131 14 208 0.0 1.6 0.00 0.00 0.00 67 1011.7
20260504220004 15 225 0.0 3.2 0.00 0.00 0.00 67 1009.9
20260504215504 15 225 0.0 1.6 0.00 0.00 0.00 65 1009.9
20260504215125 15 181 0.0 1.6 0.00 0.00 0.00 66 1011.7
20260504214624 15 181 0.0 3.2 0.00 0.00 0.00 65 1011.7
20260504214504 15 200 1.6 3.2 0.00 0.00 0.00 65 1010.1
20260504214124 15 154 1.6 3.2 0.00 0.00 0.00 65 1011.7
20260504213124 15 235 3.2 6.4 0.00 0.00 0.00 65 1011.7
20260504212504 15 181 3.2 6.4 0.00 0.00 0.00 64 1010.0
20260504212125 15 181 0.0 1.6 0.00 0.00 0.00 64 1011.6
20260504212003 15 181 1.6 3.2 0.00 0.00 0.00 63 1010.0
20260504211624 15 0 0.0 0.0 0.00 0.00 0.00 63 1011.5
20260504211504 15 181 1.6 3.2 0.00 0.00 0.00 63 1009.8
20260504211124 15 0 0.0 0.0 0.00 0.00 0.00 63 1011.7
20260504211003 16 0 0.0 0.0 0.00 0.00 0.00 62 1010.0
20260504210625 16 0 0.0 0.0 0.00 0.00 0.00 63 1011.4
20260504210504 16 181 0.0 3.2 0.00 0.00 0.00 62 1010.1
20260504210130 16 0 0.0 0.0 0.00 0.00 0.00 61 1011.4
20260504210005 16 181 0.0 3.2 0.00 0.00 0.00 61 1009.8
20260504205624 16 179 0.0 1.6 0.00 0.00 0.00 61 1011.3
20260504205504 16 195 1.6 3.2 0.00 0.00 0.00 61 1009.9
20260504205124 16 241 0.0 1.6 0.00 0.00 0.00 61 1011.5
20260504205004 16 213 1.6 3.2 0.00 0.00 0.00 60 1009.9
20260504204624 16 212 0.0 3.2 0.00 0.00 0.00 60 1011.5
20260504204504 16 202 1.6 3.2 0.00 0.00 0.00 60 1010.0
20260504204124 16 151 0.0 3.2 0.00 0.00 0.00 59 1011.6
20260504204004 16 314 1.6 3.2 0.00 0.00 0.00 59 1010.1
20260504203625 16 285 3.2 6.4 0.00 0.00 0.00 59 1011.5
20260504203503 17 330 4.8 8.0 0.00 0.00 0.00 58 1010.0
20260504203124 16 311 4.8 6.4 0.00 0.00 0.00 59 1011.6
20260504203004 17 332 4.8 8.0 0.00 0.00 0.00 58 1010.0
20260504202503 17 339 4.8 6.4 0.00 0.00 0.00 57 1010.1
20260504202125 17 356 1.6 4.8 0.00 0.00 0.00 55 1011.3
20260504202004 17 329 3.2 4.8 0.00 0.00 0.00 56 1009.8
20260504201504 17 214 1.6 3.2 0.00 0.00 0.00 55 1009.9
20260504201124 18 190 3.2 3.2 0.00 0.00 0.00 55 1011.4